Regional Weather Roundup
Issued by NWS

Home | Current Version | Previous Version | Text Only | Print | Product List | Glossary Off
Versions: 1 2 3 4 5 6 7 8 9 10 11 12 13 14 15 16 17 18 19 20 21 22 23 24 25 26 27 28 29 30 31 32 33 34 35 36 37 38 39 40 41 42 43 44 45 46 47 48 49 50

000
ASUS43 KLMK 011502
RWRKY
KENTUCKY REGIONAL WEATHER ROUNDUP
NATIONAL WEATHER SERVICE LOUISVILLE KY
1100 AM EDT TUE SEP 01 2015

NOTE "FAIR" INDICATES FEW OR NO CLOUDS BELOW 12,000 FEET
WITH NO SIGNIFICANT WEATHER AND/OR OBSTRUCTIONS TO VISIBILITY.

KYZ001>023-026-027-061>063-070>075-011600-
WESTERN AND SOUTH CENTRAL KENTUCKY

CITY           SKY/WX    TMP DP  RH WIND       PRES   REMARKS
PADUCAH        SUNNY     82  69  64 VRB3      30.13S
HENDERSON      SUNNY     84  68  58 CALM      30.13R
OWENSBORO      SUNNY     83  70  64 SW7       30.15R
HOPKINSVILLE   SUNNY     80  68  66 VRB1      30.15R
BOWLING GREEN  SUNNY     82  67  60 S3        30.16S
GLASGOW        SUNNY     81  66  61 CALM      30.16F
$$

KYZ024-025-028>034-038-045-046-053-011600-
NORTH CENTRAL KENTUCKY

CITY           SKY/WX    TMP DP  RH WIND       PRES   REMARKS
LOUISVILLE/SDF MOSUNNY   82  66  58 CALM      30.15R
LOUISVILLE/LOU SUNNY     82  67  60 VRB5      30.16R
FORT KNOX      MOSUNNY   85  69  59 E2        30.15S
$$

KYZ035>037-039>044-047>052-055>060-089>105-011600-
NORTHEAST KENTUCKY

CITY           SKY/WX    TMP DP  RH WIND       PRES   REMARKS
LEXINGTON      SUNNY     82  64  54 CALM      30.18S
COVINGTON      SUNNY     82  67  60 NW3       30.16S
FRANKFORT      SUNNY     81  66  60 CALM      30.16S
$$

KYZ054-064>069-076>088-106>120-011600-
SOUTHEAST KENTUCKY

CITY           SKY/WX    TMP DP  RH WIND       PRES   REMARKS
JACKSON        SUNNY     80  68  66 CALM      30.20S
LONDON         SUNNY     80  65  59 CALM      30.20R
SOMERSET       NOT AVBL
MIDDLESBORO    SUNNY     72  68  86 CALM      30.21S
MONTICELLO     SUNNY     81  70  69 CALM      30.21S
$$




USA.gov is the U.S. government's official web portal to all federal, state and local government web resources and services.